CW7229 Weather Reports


Display with metric or nautical units.
time (UTC)temp
F
wind
direction
speed
MPH
gust
MPH
rain 1hr
in
rain 24hr
in
rain mn
in
humidity
%
barometer
mb
20260506043114 49 43 6.0 9.0 0.15 0.73 0.69 80 1003.7
20260506033113 50 71 0.0 8.0 0.16 0.59 0.53 81 1003.7
20260506030113 51 31 3.0 5.0 0.15 0.50 0.45 82 1003.6
20260506023114 51 32 6.0 8.0 0.16 0.45 0.38 82 1003.6
20260506020114 52 61 6.0 9.0 0.14 0.36 0.29 82 1003.6
20260506013113 52 339 4.0 9.0 0.12 0.29 0.21 81 1003.6
20260506010113 52 60 7.0 10.0 0.11 0.23 0.15 81 1004.6
20260506003113 52 46 7.0 9.0 0.08 0.17 0.09 80 1004.6
20260506000113 52 71 5.0 11.0 0.04 0.12 0.04 79 1004.6
20260505233113 53 52 4.0 8.0 0.01 0.10 0.01 76 1004.6
20260505230113 53 22 4.0 8.0 0.00 0.09 0.00 73 1005.6
20260505223113 53 64 6.0 11.0 0.00 0.10 0.00 69 1005.6
20260505213113 54 318 4.0 8.0 0.00 0.12 0.12 63 1005.6
20260505210113 54 56 6.0 9.0 0.00 0.12 0.12 61 1005.6
20260505203112 54 24 6.0 10.0 0.00 0.14 0.12 62 1005.6
20260505200112 54 61 8.0 14.0 0.00 0.14 0.12 61 1005.6
20260505193112 54 68 7.0 10.0 0.00 0.21 0.12 59 1005.6
20260505190114 55 41 5.0 8.0 0.00 0.21 0.12 59 1005.6
20260505183114 56 24 8.0 11.0 0.00 0.31 0.12 56 1005.6
20260505180133 56 332 6.0 8.0 0.00 0.31 0.12 57 1005.6
20260505163114 57 357 5.0 11.0 0.00 0.51 0.12 52 1005.5
20260505160114 58 30 5.0 8.0 0.00 0.51 0.12 52 1006.5
20260505153114 59 82 5.0 10.0 0.00 0.51 0.12 51 1006.5
20260505150113 60 335 4.0 8.0 0.00 0.51 0.12 49 1006.5
20260505140113 61 35 4.0 8.0 0.00 0.51 0.12 45 1006.5
20260505130113 61 1 3.0 6.0 0.00 0.51 0.12 48 1006.5
20260505123113 63 350 4.0 6.0 0.00 0.51 0.12 46 1006.4
20260505120113 63 14 3.0 5.0 0.00 0.51 0.12 45 1006.4
20260505113113 63 320 6.0 8.0 0.00 0.51 0.12 46 1006.4
20260505110113 64 324 4.0 9.0 0.00 0.51 0.12 47 1006.4
20260505093113 62 313 3.0 6.0 0.00 0.50 0.11 49 1007.5
20260505090113 61 312 0.0 6.0 0.00 0.50 0.11 53 1007.5
20260505083113 61 315 0.0 0.0 0.00 0.50 0.11 69 1007.5
20260505080112 60 168 0.0 0.0 0.01 0.50 0.11 77 1007.5
20260505073112 58 277 0.0 0.0 0.01 0.50 0.11 79 1007.5
20260505070112 58 196 0.0 0.0 0.01 0.49 0.10 79 1007.5
20260505063112 58 196 0.0 0.0 0.02 0.49 0.10 79 1007.5
20260505060131 58 196 0.0 0.0 0.03 0.49 0.10 79 1007.5
20260505053113 58 196 0.0 0.0 0.01 0.47 0.08 78 1007.5
20260505050133 58 196 0.0 0.0 0.01 0.46 0.07 77 1007.5